owner,sensor,date,latitude,longitude,relative_humidity,qcFlag 
COMPS,ioos:station:USF.COMPS:C13:1,2016-02-01T00:05:00Z,26.0630,-83.0730,88.17,1111122 
COMPS,ioos:station:USF.COMPS:C13:1,2016-02-01T00:35:00Z,26.0630,-83.0730,88.48,1111122 
COMPS,ioos:station:USF.COMPS:C13:1,2016-02-01T01:05:00Z,26.0630,-83.0730,89.22,1111122 
COMPS,ioos:station:USF.COMPS:C13:1,2016-02-01T01:35:00Z,26.0630,-83.0730,91.14,1111122 
COMPS,ioos:station:USF.COMPS:C13:1,2016-02-01T06:05:00Z,26.0630,-83.0730,96.19,1111122 
COMPS,ioos:station:USF.COMPS:C13:1,2016-02-01T06:35:00Z,26.0630,-83.0730,96.45,1111122 
COMPS,ioos:station:USF.COMPS:C13:1,2016-02-01T07:05:00Z,26.0630,-83.0730,97.43,1111122 
COMPS,ioos:station:USF.COMPS:C13:1,2016-02-01T07:35:00Z,26.0630,-83.0730,98.25,1111122 
COMPS,ioos:station:USF.COMPS:C13:1,2016-02-01T08:05:00Z,26.0630,-83.0730,99.3,1111122 
COMPS,ioos:station:USF.COMPS:C13:1,2016-02-01T08:35:00Z,26.0630,-83.0730,100.05,1111122 
COMPS,ioos:station:USF.COMPS:C13:1,2016-02-01T09:05:00Z,26.0630,-83.0730,99.64,1111122 
COMPS,ioos:station:USF.COMPS:C13:1,2016-02-01T09:35:00Z,26.0630,-83.0730,98.78,1111122 
COMPS,ioos:station:USF.COMPS:C13:1,2016-02-01T10:05:00Z,26.0630,-83.0730,98.78,1111122 
COMPS,ioos:station:USF.COMPS:C13:1,2016-02-01T10:35:00Z,26.0630,-83.0730,98.82,1111122 
COMPS,ioos:station:USF.COMPS:C13:1,2016-02-01T11:05:00Z,26.0630,-83.0730,98.98,1111122 
COMPS,ioos:station:USF.COMPS:C13:1,2016-02-01T11:35:00Z,26.0630,-83.0730,99.27,1111122 
COMPS,ioos:station:USF.COMPS:C13:1,2016-02-01T13:05:00Z,26.0630,-83.0730,100.08,1111122 
COMPS,ioos:station:USF.COMPS:C13:1,2016-02-01T13:35:00Z,26.0630,-83.0730,99.87,1111122 
COMPS,ioos:station:USF.COMPS:C13:1,2016-02-01T14:05:00Z,26.0630,-83.0730,99.57,1111122 
COMPS,ioos:station:USF.COMPS:C13:1,2016-02-01T14:35:00Z,26.0630,-83.0730,99.89,1111122 
COMPS,ioos:station:USF.COMPS:C13:1,2016-02-01T15:05:00Z,26.0630,-83.0730,100.06,1111122 
COMPS,ioos:station:USF.COMPS:C13:1,2016-02-01T15:35:00Z,26.0630,-83.0730,100.12,1111122 
COMPS,ioos:station:USF.COMPS:C13:1,2016-02-01T16:05:00Z,26.0630,-83.0730,100.0,1111122 
COMPS,ioos:station:USF.COMPS:C13:1,2016-02-01T16:35:00Z,26.0630,-83.0730,100.09,1111122 
COMPS,ioos:station:USF.COMPS:C13:1,2016-02-01T17:05:00Z,26.0630,-83.0730,100.09,1111122 
COMPS,ioos:station:USF.COMPS:C13:1,2016-02-01T17:35:00Z,26.0630,-83.0730,100.1,1111122 
COMPS,ioos:station:USF.COMPS:C13:1,2016-02-01T18:05:00Z,26.0630,-83.0730,100.12,1111122 
COMPS,ioos:station:USF.COMPS:C13:1,2016-02-01T18:35:00Z,26.0630,-83.0730,100.02,1111122 
COMPS,ioos:station:USF.COMPS:C13:1,2016-02-01T19:05:00Z,26.0630,-83.0730,99.92,1111122 
COMPS,ioos:station:USF.COMPS:C13:1,2016-02-01T19:35:00Z,26.0630,-83.0730,100.06,1111122 
COMPS,ioos:station:USF.COMPS:C13:1,2016-02-01T20:05:00Z,26.0630,-83.0730,100.15,1111122 
COMPS,ioos:station:USF.COMPS:C13:1,2016-02-01T20:35:00Z,26.0630,-83.0730,100.15,1111122 
COMPS,ioos:station:USF.COMPS:C13:1,2016-02-01T21:05:00Z,26.0630,-83.0730,100.15,1111122 
COMPS,ioos:station:USF.COMPS:C13:1,2016-02-01T21:35:00Z,26.0630,-83.0730,100.15,1111122 
COMPS,ioos:station:USF.COMPS:C13:1,2016-02-01T22:05:00Z,26.0630,-83.0730,100.14,1111122 
COMPS,ioos:station:USF.COMPS:C13:1,2016-02-01T22:35:00Z,26.0630,-83.0730,100.18,1111122 
COMPS,ioos:station:USF.COMPS:C13:1,2016-02-01T23:05:00Z,26.0630,-83.0730,100.15,1111122 
COMPS,ioos:station:USF.COMPS:C13:1,2016-02-01T23:35:00Z,26.0630,-83.0730,100.16,1111122 
COMPS,ioos:station:USF.COMPS:C13:1,2016-02-02T00:05:00Z,26.0630,-83.0730,100.17,1111122 
COMPS,ioos:station:USF.COMPS:C13:1,2016-02-02T00:35:00Z,26.0630,-83.0730,100.14,1111122 
COMPS,ioos:station:USF.COMPS:C13:1,2016-02-02T01:05:00Z,26.0630,-83.0730,100.16,1111122 
COMPS,ioos:station:USF.COMPS:C13:1,2016-02-02T01:35:00Z,26.0630,-83.0730,100.14,1111122 
COMPS,ioos:station:USF.COMPS:C13:1,2016-02-02T02:05:00Z,26.0630,-83.0730,100.16,1111122 
COMPS,ioos:station:USF.COMPS:C13:1,2016-02-02T02:35:00Z,26.0630,-83.0730,100.14,1111122 
COMPS,ioos:station:USF.COMPS:C13:1,2016-02-02T05:05:00Z,26.0630,-83.0730,100.15,1111122 
COMPS,ioos:station:USF.COMPS:C13:1,2016-02-02T05:35:00Z,26.0630,-83.0730,100.15,1111122 
COMPS,ioos:station:USF.COMPS:C13:1,2016-02-02T06:05:00Z,26.0630,-83.0730,100.17,1111122 
COMPS,ioos:station:USF.COMPS:C13:1,2016-02-02T06:35:00Z,26.0630,-83.0730,100.15,1111122 
COMPS,ioos:station:USF.COMPS:C13:1,2016-02-02T07:05:00Z,26.0630,-83.0730,100.15,1111122 
COMPS,ioos:station:USF.COMPS:C13:1,2016-02-02T07:35:00Z,26.0630,-83.0730,100.16,1111122 
COMPS,ioos:station:USF.COMPS:C13:1,2016-02-02T08:05:00Z,26.0630,-83.0730,100.14,1111122 
COMPS,ioos:station:USF.COMPS:C13:1,2016-02-02T08:35:00Z,26.0630,-83.0730,100.16,1111122 
COMPS,ioos:station:USF.COMPS:C13:1,2016-02-02T09:05:00Z,26.0630,-83.0730,100.17,1111122 
COMPS,ioos:station:USF.COMPS:C13:1,2016-02-02T09:35:00Z,26.0630,-83.0730,100.14,1111122 
COMPS,ioos:station:USF.COMPS:C13:1,2016-02-02T10:05:00Z,26.0630,-83.0730,100.14,1111122 
COMPS,ioos:station:USF.COMPS:C13:1,2016-02-02T10:35:00Z,26.0630,-83.0730,100.14,1111122 
COMPS,ioos:station:USF.COMPS:C13:1,2016-02-02T11:05:00Z,26.0630,-83.0730,100.15,1111122 
COMPS,ioos:station:USF.COMPS:C13:1,2016-02-02T11:35:00Z,26.0630,-83.0730,100.15,1111122 
COMPS,ioos:station:USF.COMPS:C13:1,2016-02-02T12:05:00Z,26.0630,-83.0730,100.15,1111122 
COMPS,ioos:station:USF.COMPS:C13:1,2016-02-02T12:35:00Z,26.0630,-83.0730,100.14,1111122 
COMPS,ioos:station:USF.COMPS:C13:1,2016-02-02T13:05:00Z,26.0630,-83.0730,100.12,1111122 
COMPS,ioos:station:USF.COMPS:C13:1,2016-02-02T13:35:00Z,26.0630,-83.0730,100.15,1111122 
COMPS,ioos:station:USF.COMPS:C13:1,2016-02-02T14:05:00Z,26.0630,-83.0730,100.13,1111122 
COMPS,ioos:station:USF.COMPS:C13:1,2016-02-02T14:35:00Z,26.0630,-83.0730,100.15,1111122 
COMPS,ioos:station:USF.COMPS:C13:1,2016-02-02T15:05:00Z,26.0630,-83.0730,100.16,1111122 
COMPS,ioos:station:USF.COMPS:C13:1,2016-02-02T15:35:00Z,26.0630,-83.0730,100.14,1111122 
COMPS,ioos:station:USF.COMPS:C13:1,2016-02-02T16:05:00Z,26.0630,-83.0730,100.15,1111122 
COMPS,ioos:station:USF.COMPS:C13:1,2016-02-02T16:35:00Z,26.0630,-83.0730,100.15,1111122 
COMPS,ioos:station:USF.COMPS:C13:1,2016-02-02T17:05:00Z,26.0630,-83.0730,100.16,1111122 
COMPS,ioos:station:USF.COMPS:C13:1,2016-02-02T17:35:00Z,26.0630,-83.0730,100.15,1111122 
COMPS,ioos:station:USF.COMPS:C13:1,2016-02-02T18:05:00Z,26.0630,-83.0730,100.16,1111122 
COMPS,ioos:station:USF.COMPS:C13:1,2016-02-02T18:35:00Z,26.0630,-83.0730,100.16,1111122 
COMPS,ioos:station:USF.COMPS:C13:1,2016-02-02T19:05:00Z,26.0630,-83.0730,100.17,1111122 
COMPS,ioos:station:USF.COMPS:C13:1,2016-02-02T19:35:00Z,26.0630,-83.0730,100.15,1111122 
COMPS,ioos:station:USF.COMPS:C13:1,2016-02-03T02:05:00Z,26.0630,-83.0730,100.04,1111122 
COMPS,ioos:station:USF.COMPS:C13:1,2016-02-03T02:35:00Z,26.0630,-83.0730,100.17,1111122 
COMPS,ioos:station:USF.COMPS:C13:1,2016-02-03T06:05:00Z,26.0630,-83.0730,100.17,1111122 
COMPS,ioos:station:USF.COMPS:C13:1,2016-02-03T06:35:00Z,26.0630,-83.0730,100.15,1111122 
COMPS,ioos:station:USF.COMPS:C13:1,2016-02-03T07:05:00Z,26.0630,-83.0730,100.16,1111122 
COMPS,ioos:station:USF.COMPS:C13:1,2016-02-03T07:35:00Z,26.0630,-83.0730,100.16,1111122 
COMPS,ioos:station:USF.COMPS:C13:1,2016-02-03T08:05:00Z,26.0630,-83.0730,100.16,1111122 
COMPS,ioos:station:USF.COMPS:C13:1,2016-02-03T08:35:00Z,26.0630,-83.0730,100.16,1111122 
COMPS,ioos:station:USF.COMPS:C13:1,2016-02-03T09:05:00Z,26.0630,-83.0730,100.16,1111122 
COMPS,ioos:station:USF.COMPS:C13:1,2016-02-03T10:05:00Z,26.0630,-83.0730,100.16,1111122 
COMPS,ioos:station:USF.COMPS:C13:1,2016-02-03T10:35:00Z,26.0630,-83.0730,100.16,1111122 
COMPS,ioos:station:USF.COMPS:C13:1,2016-02-03T11:05:00Z,26.0630,-83.0730,100.16,1111122 
COMPS,ioos:station:USF.COMPS:C13:1,2016-02-03T11:35:00Z,26.0630,-83.0730,100.16,1111122 
COMPS,ioos:station:USF.COMPS:C13:1,2016-02-03T12:05:00Z,26.0630,-83.0730,100.16,1111122 
COMPS,ioos:station:USF.COMPS:C13:1,2016-02-03T12:35:00Z,26.0630,-83.0730,100.17,1111122 
COMPS,ioos:station:USF.COMPS:C13:1,2016-02-03T13:05:00Z,26.0630,-83.0730,100.16,1111122 
COMPS,ioos:station:USF.COMPS:C13:1,2016-02-03T13:35:00Z,26.0630,-83.0730,100.17,1111122 
COMPS,ioos:station:USF.COMPS:C13:1,2016-02-03T14:05:00Z,26.0630,-83.0730,100.16,1111122 
COMPS,ioos:station:USF.COMPS:C13:1,2016-02-03T14:35:00Z,26.0630,-83.0730,100.15,1111122 
COMPS,ioos:station:USF.COMPS:C13:1,2016-02-03T15:05:00Z,26.0630,-83.0730,100.14,1111122 
COMPS,ioos:station:USF.COMPS:C13:1,2016-02-03T15:35:00Z,26.0630,-83.0730,100.14,1111122 
COMPS,ioos:station:USF.COMPS:C13:1,2016-02-03T16:05:00Z,26.0630,-83.0730,100.15,1111122 
COMPS,ioos:station:USF.COMPS:C13:1,2016-02-03T16:35:00Z,26.0630,-83.0730,99.78,1111122 
COMPS,ioos:station:USF.COMPS:C13:1,2016-02-03T18:05:00Z,26.0630,-83.0730,98.69,1111122 
COMPS,ioos:station:USF.COMPS:C13:1,2016-02-03T18:35:00Z,26.0630,-83.0730,98.75,1111122 
COMPS,ioos:station:USF.COMPS:C13:1,2016-02-03T20:05:00Z,26.0630,-83.0730,98.42,1111122 
COMPS,ioos:station:USF.COMPS:C13:1,2016-02-03T20:35:00Z,26.0630,-83.0730,98.58,1111122 
COMPS,ioos:station:USF.COMPS:C13:1,2016-02-03T23:05:00Z,26.0630,-83.0730,99.18,1111122 
COMPS,ioos:station:USF.COMPS:C13:1,2016-02-03T23:35:00Z,26.0630,-83.0730,99.42,1111122 
COMPS,ioos:station:USF.COMPS:C13:1,2016-02-04T00:05:00Z,26.0630,-83.0730,99.69,1111122 
COMPS,ioos:station:USF.COMPS:C13:1,2016-02-04T00:35:00Z,26.0630,-83.0730,99.59,1111122 
COMPS,ioos:station:USF.COMPS:C13:1,2016-02-04T01:05:00Z,26.0630,-83.0730,99.71,1111122 
COMPS,ioos:station:USF.COMPS:C13:1,2016-02-04T01:35:00Z,26.0630,-83.0730,99.76,1111122 
COMPS,ioos:station:USF.COMPS:C13:1,2016-02-04T05:05:00Z,26.0630,-83.0730,99.19,1111122 
COMPS,ioos:station:USF.COMPS:C13:1,2016-02-04T05:35:00Z,26.0630,-83.0730,99.51,1111122 
COMPS,ioos:station:USF.COMPS:C13:1,2016-02-04T06:05:00Z,26.0630,-83.0730,99.63,1111122 
COMPS,ioos:station:USF.COMPS:C13:1,2016-02-04T06:35:00Z,26.0630,-83.0730,99.87,1111122 
COMPS,ioos:station:USF.COMPS:C13:1,2016-02-04T07:05:00Z,26.0630,-83.0730,100.14,1111122 
COMPS,ioos:station:USF.COMPS:C13:1,2016-02-04T07:35:00Z,26.0630,-83.0730,100.16,1111122 
COMPS,ioos:station:USF.COMPS:C13:1,2016-02-04T08:05:00Z,26.0630,-83.0730,100.18,1111122 
COMPS,ioos:station:USF.COMPS:C13:1,2016-02-04T08:35:00Z,26.0630,-83.0730,100.17,1111122 
COMPS,ioos:station:USF.COMPS:C13:1,2016-02-04T09:05:00Z,26.0630,-83.0730,100.18,1111122 
COMPS,ioos:station:USF.COMPS:C13:1,2016-02-04T09:35:00Z,26.0630,-83.0730,100.18,1111122 
COMPS,ioos:station:USF.COMPS:C13:1,2016-02-04T10:05:00Z,26.0630,-83.0730,100.19,1111122 
COMPS,ioos:station:USF.COMPS:C13:1,2016-02-04T10:35:00Z,26.0630,-83.0730,100.16,1111122 
COMPS,ioos:station:USF.COMPS:C13:1,2016-02-04T11:05:00Z,26.0630,-83.0730,100.16,1111122 
COMPS,ioos:station:USF.COMPS:C13:1,2016-02-04T11:35:00Z,26.0630,-83.0730,100.16,1111122 
COMPS,ioos:station:USF.COMPS:C13:1,2016-02-04T13:05:00Z,26.0630,-83.0730,100.16,1111122 
COMPS,ioos:station:USF.COMPS:C13:1,2016-02-04T13:35:00Z,26.0630,-83.0730,100.18,1111122 
COMPS,ioos:station:USF.COMPS:C13:1,2016-02-04T14:05:00Z,26.0630,-83.0730,100.17,1111122 
COMPS,ioos:station:USF.COMPS:C13:1,2016-02-04T14:35:00Z,26.0630,-83.0730,100.16,1111122 
COMPS,ioos:station:USF.COMPS:C13:1,2016-02-04T16:05:00Z,26.0630,-83.0730,100.15,1111122 
COMPS,ioos:station:USF.COMPS:C13:1,2016-02-04T16:35:00Z,26.0630,-83.0730,100.15,1111122 
COMPS,ioos:station:USF.COMPS:C13:1,2016-02-04T17:05:00Z,26.0630,-83.0730,100.16,1111122 
COMPS,ioos:station:USF.COMPS:C13:1,2016-02-04T17:35:00Z,26.0630,-83.0730,100.15,1111122 
COMPS,ioos:station:USF.COMPS:C13:1,2016-02-04T20:05:00Z,26.0630,-83.0730,100.02,1111122 
COMPS,ioos:station:USF.COMPS:C13:1,2016-02-04T20:35:00Z,26.0630,-83.0730,100.15,1111122 
COMPS,ioos:station:USF.COMPS:C13:1,2016-02-04T21:05:00Z,26.0630,-83.0730,100.17,1111122 
COMPS,ioos:station:USF.COMPS:C13:1,2016-02-04T21:35:00Z,26.0630,-83.0730,100.18,1111122 
COMPS,ioos:station:USF.COMPS:C13:1,2016-02-04T23:05:00Z,26.0630,-83.0730,100.15,1111122 
COMPS,ioos:station:USF.COMPS:C13:1,2016-02-04T23:35:00Z,26.0630,-83.0730,100.13,1111122 
COMPS,ioos:station:USF.COMPS:C13:1,2016-02-05T00:05:00Z,26.0630,-83.0730,100.15,1111122 
COMPS,ioos:station:USF.COMPS:C13:1,2016-02-05T00:35:00Z,26.0630,-83.0730,100.18,1111122 
COMPS,ioos:station:USF.COMPS:C13:1,2016-02-05T01:05:00Z,26.0630,-83.0730,100.15,1111122 
COMPS,ioos:station:USF.COMPS:C13:1,2016-02-05T01:35:00Z,26.0630,-83.0730,100.13,1111122 
COMPS,ioos:station:USF.COMPS:C13:1,2016-02-05T02:05:00Z,26.0630,-83.0730,100.05,1111122 
COMPS,ioos:station:USF.COMPS:C13:1,2016-02-05T02:35:00Z,26.0630,-83.0730,93.94,1111122 
COMPS,ioos:station:USF.COMPS:C13:1,2016-02-05T03:05:00Z,26.0630,-83.0730,93.77,1111122 
COMPS,ioos:station:USF.COMPS:C13:1,2016-02-05T03:35:00Z,26.0630,-83.0730,96.25,1111122 
COMPS,ioos:station:USF.COMPS:C13:1,2016-02-05T05:05:00Z,26.0630,-83.0730,78.77,1111122 
COMPS,ioos:station:USF.COMPS:C13:1,2016-02-05T05:35:00Z,26.0630,-83.0730,74.9,1111122 
COMPS,ioos:station:USF.COMPS:C13:1,2016-02-05T06:05:00Z,26.0630,-83.0730,77.6,1111122 
COMPS,ioos:station:USF.COMPS:C13:1,2016-02-05T06:35:00Z,26.0630,-83.0730,79.0,1111122 
COMPS,ioos:station:USF.COMPS:C13:1,2016-02-05T07:05:00Z,26.0630,-83.0730,80.46,1111122 
COMPS,ioos:station:USF.COMPS:C13:1,2016-02-05T07:35:00Z,26.0630,-83.0730,77.34,1111122 
COMPS,ioos:station:USF.COMPS:C13:1,2016-02-05T08:05:00Z,26.0630,-83.0730,80.98,1111122 
COMPS,ioos:station:USF.COMPS:C13:1,2016-02-05T08:35:00Z,26.0630,-83.0730,80.9,1111122 
COMPS,ioos:station:USF.COMPS:C13:1,2016-02-05T09:05:00Z,26.0630,-83.0730,79.34,1111122 
COMPS,ioos:station:USF.COMPS:C13:1,2016-02-05T09:35:00Z,26.0630,-83.0730,81.44,1111122 
COMPS,ioos:station:USF.COMPS:C13:1,2016-02-05T10:05:00Z,26.0630,-83.0730,81.79,1111122 
COMPS,ioos:station:USF.COMPS:C13:1,2016-02-05T10:35:00Z,26.0630,-83.0730,82.33,1111122 
COMPS,ioos:station:USF.COMPS:C13:1,2016-02-05T11:05:00Z,26.0630,-83.0730,82.06,1111122 
COMPS,ioos:station:USF.COMPS:C13:1,2016-02-05T11:35:00Z,26.0630,-83.0730,80.45,1111122 
COMPS,ioos:station:USF.COMPS:C13:1,2016-02-05T12:05:00Z,26.0630,-83.0730,79.71,1111122 
COMPS,ioos:station:USF.COMPS:C13:1,2016-02-05T12:35:00Z,26.0630,-83.0730,79.12,1111122 
COMPS,ioos:station:USF.COMPS:C13:1,2016-02-05T13:05:00Z,26.0630,-83.0730,74.98,1111122 
COMPS,ioos:station:USF.COMPS:C13:1,2016-02-05T13:35:00Z,26.0630,-83.0730,69.73,1111122 
COMPS,ioos:station:USF.COMPS:C13:1,2016-02-05T14:05:00Z,26.0630,-83.0730,70.34,1111122 
COMPS,ioos:station:USF.COMPS:C13:1,2016-02-05T14:35:00Z,26.0630,-83.0730,63.05,1111122 
COMPS,ioos:station:USF.COMPS:C13:1,2016-02-05T15:05:00Z,26.0630,-83.0730,62.39,1111122 
COMPS,ioos:station:USF.COMPS:C13:1,2016-02-05T15:35:00Z,26.0630,-83.0730,61.4,1111122 
COMPS,ioos:station:USF.COMPS:C13:1,2016-02-05T16:05:00Z,26.0630,-83.0730,58.53,1111122 
COMPS,ioos:station:USF.COMPS:C13:1,2016-02-05T16:35:00Z,26.0630,-83.0730,61.56,1111122 
COMPS,ioos:station:USF.COMPS:C13:1,2016-02-05T17:05:00Z,26.0630,-83.0730,65.68,1111122 
COMPS,ioos:station:USF.COMPS:C13:1,2016-02-05T17:35:00Z,26.0630,-83.0730,65.24,1111122 
COMPS,ioos:station:USF.COMPS:C13:1,2016-02-05T18:05:00Z,26.0630,-83.0730,67.45,1111122 
COMPS,ioos:station:USF.COMPS:C13:1,2016-02-05T18:35:00Z,26.0630,-83.0730,66.31,1111122 
COMPS,ioos:station:USF.COMPS:C13:1,2016-02-05T19:05:00Z,26.0630,-83.0730,69.25,1111122 
COMPS,ioos:station:USF.COMPS:C13:1,2016-02-05T19:35:00Z,26.0630,-83.0730,69.39,1111122 
COMPS,ioos:station:USF.COMPS:C13:1,2016-02-05T20:05:00Z,26.0630,-83.0730,69.41,1111122 
COMPS,ioos:station:USF.COMPS:C13:1,2016-02-05T20:35:00Z,26.0630,-83.0730,67.46,1111122 
COMPS,ioos:station:USF.COMPS:C13:1,2016-02-05T21:05:00Z,26.0630,-83.0730,68.34,1111122 
COMPS,ioos:station:USF.COMPS:C13:1,2016-02-05T21:35:00Z,26.0630,-83.0730,67.4,1111122 
COMPS,ioos:station:USF.COMPS:C13:1,2016-02-05T22:05:00Z,26.0630,-83.0730,65.71,1111122 
COMPS,ioos:station:USF.COMPS:C13:1,2016-02-05T22:35:00Z,26.0630,-83.0730,64.95,1111122 
COMPS,ioos:station:USF.COMPS:C13:1,2016-02-05T23:05:00Z,26.0630,-83.0730,64.36,1111122 
COMPS,ioos:station:USF.COMPS:C13:1,2016-02-05T23:35:00Z,26.0630,-83.0730,64.96,1111122 
COMPS,ioos:station:USF.COMPS:C13:1,2016-02-06T00:05:00Z,26.0630,-83.0730,64.57,1111122 
COMPS,ioos:station:USF.COMPS:C13:1,2016-02-06T00:35:00Z,26.0630,-83.0730,66.29,1111122 
COMPS,ioos:station:USF.COMPS:C13:1,2016-02-06T01:05:00Z,26.0630,-83.0730,62.58,1111122 
COMPS,ioos:station:USF.COMPS:C13:1,2016-02-06T01:35:00Z,26.0630,-83.0730,58.34,1111122 
COMPS,ioos:station:USF.COMPS:C13:1,2016-02-06T05:05:00Z,26.0630,-83.0730,81.03,1111122 
COMPS,ioos:station:USF.COMPS:C13:1,2016-02-06T05:35:00Z,26.0630,-83.0730,83.2,1111122 
COMPS,ioos:station:USF.COMPS:C13:1,2016-02-06T06:05:00Z,26.0630,-83.0730,83.47,1111122 
COMPS,ioos:station:USF.COMPS:C13:1,2016-02-06T06:35:00Z,26.0630,-83.0730,83.71,1111122 
COMPS,ioos:station:USF.COMPS:C13:1,2016-02-06T07:05:00Z,26.0630,-83.0730,84.15,1111122 
COMPS,ioos:station:USF.COMPS:C13:1,2016-02-06T07:35:00Z,26.0630,-83.0730,85.37,1111122 
COMPS,ioos:station:USF.COMPS:C13:1,2016-02-06T08:05:00Z,26.0630,-83.0730,87.57,1111122 
COMPS,ioos:station:USF.COMPS:C13:1,2016-02-06T08:35:00Z,26.0630,-83.0730,87.37,1111122 
COMPS,ioos:station:USF.COMPS:C13:1,2016-02-06T09:05:00Z,26.0630,-83.0730,89.48,1111122 
COMPS,ioos:station:USF.COMPS:C13:1,2016-02-06T09:35:00Z,26.0630,-83.0730,90.0,1111122 
COMPS,ioos:station:USF.COMPS:C13:1,2016-02-06T10:05:00Z,26.0630,-83.0730,89.67,1111122 
COMPS,ioos:station:USF.COMPS:C13:1,2016-02-06T10:35:00Z,26.0630,-83.0730,90.26,1111122 
COMPS,ioos:station:USF.COMPS:C13:1,2016-02-06T11:05:00Z,26.0630,-83.0730,90.63,1111122 
COMPS,ioos:station:USF.COMPS:C13:1,2016-02-06T11:35:00Z,26.0630,-83.0730,91.66,1111122 
COMPS,ioos:station:USF.COMPS:C13:1,2016-02-06T12:05:00Z,26.0630,-83.0730,91.2,1111122 
COMPS,ioos:station:USF.COMPS:C13:1,2016-02-06T12:35:00Z,26.0630,-83.0730,90.83,1111122 
COMPS,ioos:station:USF.COMPS:C13:1,2016-02-06T13:05:00Z,26.0630,-83.0730,91.56,1111122 
COMPS,ioos:station:USF.COMPS:C13:1,2016-02-06T13:35:00Z,26.0630,-83.0730,91.26,1111122 
COMPS,ioos:station:USF.COMPS:C13:1,2016-02-06T14:05:00Z,26.0630,-83.0730,91.48,1111122 
COMPS,ioos:station:USF.COMPS:C13:1,2016-02-06T14:35:00Z,26.0630,-83.0730,91.6,1111122 
COMPS,ioos:station:USF.COMPS:C13:1,2016-02-06T15:05:00Z,26.0630,-83.0730,93.8,1111122 
COMPS,ioos:station:USF.COMPS:C13:1,2016-02-06T15:35:00Z,26.0630,-83.0730,93.97,1111122 
COMPS,ioos:station:USF.COMPS:C13:1,2016-02-06T16:05:00Z,26.0630,-83.0730,94.27,1111122 
COMPS,ioos:station:USF.COMPS:C13:1,2016-02-06T16:35:00Z,26.0630,-83.0730,94.33,1111122 
COMPS,ioos:station:USF.COMPS:C13:1,2016-02-06T17:05:00Z,26.0630,-83.0730,94.21,1111122 
COMPS,ioos:station:USF.COMPS:C13:1,2016-02-06T17:35:00Z,26.0630,-83.0730,93.39,1111122 
COMPS,ioos:station:USF.COMPS:C13:1,2016-02-06T18:05:00Z,26.0630,-83.0730,93.36,1111122 
COMPS,ioos:station:USF.COMPS:C13:1,2016-02-06T18:35:00Z,26.0630,-83.0730,93.72,1111122 
COMPS,ioos:station:USF.COMPS:C13:1,2016-02-06T19:05:00Z,26.0630,-83.0730,94.16,1111122 
COMPS,ioos:station:USF.COMPS:C13:1,2016-02-06T19:35:00Z,26.0630,-83.0730,94.22,1111122 
COMPS,ioos:station:USF.COMPS:C13:1,2016-02-06T20:05:00Z,26.0630,-83.0730,94.8,1111122 
COMPS,ioos:station:USF.COMPS:C13:1,2016-02-06T20:35:00Z,26.0630,-83.0730,94.88,1111122 
COMPS,ioos:station:USF.COMPS:C13:1,2016-02-06T21:05:00Z,26.0630,-83.0730,92.74,1111122 
COMPS,ioos:station:USF.COMPS:C13:1,2016-02-06T21:35:00Z,26.0630,-83.0730,89.7,1111122 
COMPS,ioos:station:USF.COMPS:C13:1,2016-02-06T22:05:00Z,26.0630,-83.0730,89.7,1111122 
COMPS,ioos:station:USF.COMPS:C13:1,2016-02-06T22:35:00Z,26.0630,-83.0730,92.89,1111122 
COMPS,ioos:station:USF.COMPS:C13:1,2016-02-06T23:05:00Z,26.0630,-83.0730,95.84,1111122 
COMPS,ioos:station:USF.COMPS:C13:1,2016-02-06T23:35:00Z,26.0630,-83.0730,94.57,1111122 
COMPS,ioos:station:USF.COMPS:C13:1,2016-02-07T00:05:00Z,26.0630,-83.0730,93.57,1111122 
COMPS,ioos:station:USF.COMPS:C13:1,2016-02-07T00:35:00Z,26.0630,-83.0730,91.0,1111122 
COMPS,ioos:station:USF.COMPS:C13:1,2016-02-07T01:05:00Z,26.0630,-83.0730,91.42,1111122 
COMPS,ioos:station:USF.COMPS:C13:1,2016-02-07T01:35:00Z,26.0630,-83.0730,89.97,1111122 
COMPS,ioos:station:USF.COMPS:C13:1,2016-02-07T05:05:00Z,26.0630,-83.0730,86.35,1111122 
COMPS,ioos:station:USF.COMPS:C13:1,2016-02-07T05:35:00Z,26.0630,-83.0730,82.47,1111122 
COMPS,ioos:station:USF.COMPS:C13:1,2016-02-07T06:05:00Z,26.0630,-83.0730,82.54,1111122 
COMPS,ioos:station:USF.COMPS:C13:1,2016-02-07T06:35:00Z,26.0630,-83.0730,83.89,1111122 
COMPS,ioos:station:USF.COMPS:C13:1,2016-02-07T07:05:00Z,26.0630,-83.0730,83.88,1111122 
COMPS,ioos:station:USF.COMPS:C13:1,2016-02-07T07:35:00Z,26.0630,-83.0730,82.44,1111122 
COMPS,ioos:station:USF.COMPS:C13:1,2016-02-07T08:05:00Z,26.0630,-83.0730,79.81,1111122 
COMPS,ioos:station:USF.COMPS:C13:1,2016-02-07T08:35:00Z,26.0630,-83.0730,81.51,1111122 
COMPS,ioos:station:USF.COMPS:C13:1,2016-02-07T09:05:00Z,26.0630,-83.0730,86.26,1111122 
COMPS,ioos:station:USF.COMPS:C13:1,2016-02-07T09:35:00Z,26.0630,-83.0730,84.08,1111122 
COMPS,ioos:station:USF.COMPS:C13:1,2016-02-07T11:05:00Z,26.0630,-83.0730,77.36,1111122 
COMPS,ioos:station:USF.COMPS:C13:1,2016-02-07T11:35:00Z,26.0630,-83.0730,80.76,1111122 
COMPS,ioos:station:USF.COMPS:C13:1,2016-02-07T12:05:00Z,26.0630,-83.0730,80.59,1111122 
COMPS,ioos:station:USF.COMPS:C13:1,2016-02-07T12:35:00Z,26.0630,-83.0730,79.69,1111122 
COMPS,ioos:station:USF.COMPS:C13:1,2016-02-07T13:05:00Z,26.0630,-83.0730,78.84,1111122 
COMPS,ioos:station:USF.COMPS:C13:1,2016-02-07T13:35:00Z,26.0630,-83.0730,76.2,1111122 
COMPS,ioos:station:USF.COMPS:C13:1,2016-02-07T14:05:00Z,26.0630,-83.0730,76.0,1111122 
COMPS,ioos:station:USF.COMPS:C13:1,2016-02-07T14:35:00Z,26.0630,-83.0730,73.66,1111122 
COMPS,ioos:station:USF.COMPS:C13:1,2016-02-07T15:05:00Z,26.0630,-83.0730,74.54,1111122 
COMPS,ioos:station:USF.COMPS:C13:1,2016-02-07T15:35:00Z,26.0630,-83.0730,74.85,1111122 
COMPS,ioos:station:USF.COMPS:C13:1,2016-02-07T16:05:00Z,26.0630,-83.0730,79.22,1111122 
COMPS,ioos:station:USF.COMPS:C13:1,2016-02-07T16:35:00Z,26.0630,-83.0730,76.17,1111122 
COMPS,ioos:station:USF.COMPS:C13:1,2016-02-07T17:05:00Z,26.0630,-83.0730,74.51,1111122 
COMPS,ioos:station:USF.COMPS:C13:1,2016-02-07T17:35:00Z,26.0630,-83.0730,72.91,1111122 
COMPS,ioos:station:USF.COMPS:C13:1,2016-02-07T18:05:00Z,26.0630,-83.0730,71.73,1111122 
COMPS,ioos:station:USF.COMPS:C13:1,2016-02-07T18:35:00Z,26.0630,-83.0730,70.77,1111122 
COMPS,ioos:station:USF.COMPS:C13:1,2016-02-07T19:05:00Z,26.0630,-83.0730,70.54,1111122 
COMPS,ioos:station:USF.COMPS:C13:1,2016-02-07T19:35:00Z,26.0630,-83.0730,68.59,1111122 
COMPS,ioos:station:USF.COMPS:C13:1,2016-02-07T21:05:00Z,26.0630,-83.0730,65.78,1111122 
COMPS,ioos:station:USF.COMPS:C13:1,2016-02-07T21:35:00Z,26.0630,-83.0730,67.15,1111122 
COMPS,ioos:station:USF.COMPS:C13:1,2016-02-07T22:05:00Z,26.0630,-83.0730,66.15,1111122 
COMPS,ioos:station:USF.COMPS:C13:1,2016-02-07T22:35:00Z,26.0630,-83.0730,67.59,1111122 
COMPS,ioos:station:USF.COMPS:C13:1,2016-02-07T23:05:00Z,26.0630,-83.0730,66.91,1111122 
COMPS,ioos:station:USF.COMPS:C13:1,2016-02-07T23:35:00Z,26.0630,-83.0730,66.23,1111122 
COMPS,ioos:station:USF.COMPS:C13:1,2016-02-08T00:05:00Z,26.0630,-83.0730,69.5,1111122 
COMPS,ioos:station:USF.COMPS:C13:1,2016-02-08T00:35:00Z,26.0630,-83.0730,67.95,1111122 
COMPS,ioos:station:USF.COMPS:C13:1,2016-02-08T05:05:00Z,26.0630,-83.0730,70.12,1111122 
COMPS,ioos:station:USF.COMPS:C13:1,2016-02-08T05:35:00Z,26.0630,-83.0730,69.75,1111122 
COMPS,ioos:station:USF.COMPS:C13:1,2016-02-08T06:05:00Z,26.0630,-83.0730,68.9,1111122 
COMPS,ioos:station:USF.COMPS:C13:1,2016-02-08T06:35:00Z,26.0630,-83.0730,68.86,1111122 
COMPS,ioos:station:USF.COMPS:C13:1,2016-02-08T07:05:00Z,26.0630,-83.0730,69.41,1111122 
COMPS,ioos:station:USF.COMPS:C13:1,2016-02-08T07:35:00Z,26.0630,-83.0730,68.9,1111122 
COMPS,ioos:station:USF.COMPS:C13:1,2016-02-08T08:05:00Z,26.0630,-83.0730,67.52,1111122 
COMPS,ioos:station:USF.COMPS:C13:1,2016-02-08T08:35:00Z,26.0630,-83.0730,69.63,1111122 